ABOUT US
vACC Philippines is a recognized member of the VATSIM network. We are dedicated to enchancing the online experience of both local and international virtual pilots. Mandated to provide professional and realistic air traffic operations.

vACC Philippines aims to provide the most realistic air traffic system simulation service that is close to the real thing as possible when flying on the VATSIM network.


METARS

RPLL 190800Z 09011KT 070V130 9999 FEW025 SCT100 29/18 Q1015 NOSIG RMK A2997


RPVM 190800Z 03012KT 9999 FEW020 BKN100 29/22 Q1013 RMK A2991


RPMD 190800Z 35007KT 300V030 9999 SCT015 SCT090 BKN260 29/22 Q1011 RMK A2985



AIRFIELDS COVERED


Manila (RPLL)

Subic Bay (RPLB)

Mactan-Cebu (RPVM)

Clark (RPLC)

Laoag (RPLI)


Davao (RPMD)


Bacolod (RPVB)


Zamboanga (RPMZ)


General Santos (RPMR)


Iloilo (RPVI)


Kalibo (RPVK)


Legazpi (RPLP)


Puerto Princesa (RPVP)